When you browse on this site, cookies collect data to enhance your experience and personalize the content and advertising you see.
Visit our Privacy Policy to learn more. By continuing to use the site, you agree to this use of cookies and data.
  • En España
  • Lista de países
  • Para 7 días
  • Temperatura del agua
  • El tiempo en el mapa
  • Informadores
  • user-avatar
    Iniciar sesión

    Tiempo cada hora Winchester

    Hoy, 23 Septiembre, Lunes

    Tiempo Temperatura Precipitaciones Viento Presión Humedad
    00:00 +13°C° 0 mm 4 mps 750 mmHg 94%
    01:00 +13°C° 0 mm 5 mps 750 mmHg 93%
    02:00 +12°C° 0 mm 5 mps 750 mmHg 93%
    03:00 +12°C° 0 mm 5 mps 751 mmHg 93%
    04:00 +12°C° 0 mm 4 mps 751 mmHg 93%
    05:00 +11°C° 0 mm 4 mps 752 mmHg 93%
    06:00 +11°C° 0 mm 3 mps 752 mmHg 93%
    07:00 +13°C° 0 mm 4 mps 752 mmHg 86%
    08:00 +14°C° 0 mm 4 mps 753 mmHg 80%
    09:00 +16°C° 0 mm 5 mps 753 mmHg 74%
    10:00 +16°C° 0.1 mm 5 mps 753 mmHg 74%
    11:00 +17°C° 0.1 mm 6 mps 753 mmHg 74%
    12:00 +17°C° 0.1 mm 7 mps 753 mmHg 74%
    13:00 +17°C° 0.1 mm 7 mps 753 mmHg 73%
    14:00 +17°C° 0.1 mm 7 mps 752 mmHg 72%
    15:00 +17°C° 0.1 mm 7 mps 752 mmHg 71%
    16:00 +17°C° 0.4 mm 7 mps 752 mmHg 77%
    17:00 +16°C° 0.4 mm 7 mps 751 mmHg 84%
    18:00 +15°C° 0.4 mm 7 mps 751 mmHg 90%
    19:00 +15°C° 0.6 mm 7 mps 751 mmHg 91%
    20:00 +16°C° 0.6 mm 7 mps 751 mmHg 92%
    21:00 +16°C° 0.6 mm 7 mps 751 mmHg 93%
    22:00 +16°C° 0.1 mm 7 mps 750 mmHg 93%
    23:00 +16°C° 0.1 mm 6 mps 750 mmHg 94%

    Mañana, 24 Septiembre, Martes

    Tiempo Temperatura Precipitaciones Viento Presión Humedad
    00:00 +17°C° 0.1 mm 6 mps 749 mmHg 94%
    01:00 +17°C° 0.4 mm 6 mps 749 mmHg 94%
    02:00 +16°C° 0.4 mm 6 mps 748 mmHg 94%
    03:00 +16°C° 0.4 mm 5 mps 747 mmHg 94%
    04:00 +16°C° 2.4 mm 6 mps 747 mmHg 94%
    05:00 +16°C° 2.4 mm 7 mps 746 mmHg 94%
    06:00 +16°C° 2.4 mm 8 mps 745 mmHg 94%
    07:00 +16°C° 3.1 mm 7 mps 745 mmHg 92%
    08:00 +16°C° 3.1 mm 7 mps 745 mmHg 90%
    09:00 +16°C° 3.1 mm 6 mps 745 mmHg 89%
    10:00 +17°C° 1.1 mm 6 mps 745 mmHg 84%
    11:00 +18°C° 1.1 mm 7 mps 745 mmHg 79%
    12:00 +20°C° 1.1 mm 7 mps 745 mmHg 75%
    13:00 +18°C° 0.4 mm 7 mps 745 mmHg 74%
    14:00 +18°C° 0.4 mm 7 mps 745 mmHg 73%
    15:00 +17°C° 0.4 mm 7 mps 745 mmHg 73%
    16:00 +16°C° 0.1 mm 7 mps 746 mmHg 76%
    17:00 +15°C° 0.1 mm 6 mps 746 mmHg 79%
    18:00 +14°C° 0.1 mm 5 mps 746 mmHg 82%
    19:00 +14°C° 0.2 mm 5 mps 746 mmHg 84%
    20:00 +14°C° 0.2 mm 6 mps 746 mmHg 85%
    21:00 +14°C° 0.2 mm 6 mps 746 mmHg 86%
    22:00 +14°C° 0.4 mm 6 mps 746 mmHg 88%
    23:00 +14°C° 0.4 mm 7 mps 745 mmHg 89%

    Pasado mañana, 25 Septiembre, Miércoles

    Tiempo Temperatura Precipitaciones Viento Presión Humedad
    00:00 +14°C° 0.4 mm 7 mps 745 mmHg 91%
    01:00 +14°C° 0.6 mm 7 mps 744 mmHg 91%
    02:00 +14°C° 0.6 mm 7 mps 744 mmHg 91%
    03:00 +14°C° 0.6 mm 6 mps 744 mmHg 90%
    04:00 +14°C° 0.5 mm 7 mps 744 mmHg 90%
    05:00 +14°C° 0.5 mm 7 mps 743 mmHg 90%
    06:00 +13°C° 0.5 mm 8 mps 743 mmHg 90%
    07:00 +13°C° 0.6 mm 8 mps 743 mmHg 90%
    08:00 +13°C° 0.6 mm 8 mps 744 mmHg 90%
    09:00 +15°C° 0.6 mm 8 mps 744 mmHg 90%
    10:00 +15°C° 0.2 mm 8 mps 745 mmHg 87%
    11:00 +16°C° 0.2 mm 8 mps 745 mmHg 83%
    12:00 +17°C° 0.2 mm 8 mps 746 mmHg 80%
    13:00 +17°C° 0.1 mm 8 mps 746 mmHg 77%
    14:00 +18°C° 0.1 mm 7 mps 746 mmHg 75%
    15:00 +18°C° 0.1 mm 7 mps 746 mmHg 72%
    16:00 +17°C° 0 mm 6 mps 746 mmHg 77%
    17:00 +16°C° 0 mm 5 mps 747 mmHg 81%
    18:00 +15°C° 0 mm 4 mps 747 mmHg 86%
    19:00 +15°C° 0 mm 5 mps 747 mmHg 89%
    20:00 +15°C° 0 mm 5 mps 747 mmHg 92%
    21:00 +15°C° 0 mm 5 mps 747 mmHg 95%
    22:00 +15°C° 0.2 mm 6 mps 747 mmHg 94%
    23:00 +16°C° 0.2 mm 6 mps 747 mmHg 93%

    26 Septiembre, Jueves

    Tiempo Temperatura Precipitaciones Viento Presión Humedad
    00:00 +16°C° 0.2 mm 7 mps 746 mmHg 92%
    01:00 +16°C° 0.1 mm 7 mps 746 mmHg 91%
    02:00 +16°C° 0.1 mm 7 mps 746 mmHg 90%
    03:00 +16°C° 0.1 mm 7 mps 746 mmHg 89%
    04:00 +16°C° 0.4 mm 8 mps 746 mmHg 90%
    05:00 +16°C° 0.4 mm 8 mps 746 mmHg 91%
    06:00 +16°C° 0.4 mm 8 mps 746 mmHg 92%
    07:00 +16°C° 1.6 mm 8 mps 746 mmHg 91%
    08:00 +16°C° 1.6 mm 7 mps 747 mmHg 90%
    09:00 +16°C° 1.6 mm 7 mps 747 mmHg 88%
    10:00 +17°C° 0.3 mm 7 mps 747 mmHg 83%
    11:00 +17°C° 0.3 mm 7 mps 747 mmHg 78%
    12:00 +18°C° 0.3 mm 8 mps 748 mmHg 72%
    13:00 +17°C° 0.1 mm 8 mps 748 mmHg 71%
    14:00 +17°C° 0.1 mm 8 mps 748 mmHg 70%
    15:00 +17°C° 0.1 mm 8 mps 748 mmHg 69%
    16:00 +16°C° 0 mm 8 mps 748 mmHg 72%
    17:00 +15°C° 0 mm 7 mps 748 mmHg 74%
    18:00 +15°C° 0 mm 7 mps 749 mmHg 77%
    19:00 +15°C° 0.1 mm 6 mps 749 mmHg 79%
    20:00 +14°C° 0.1 mm 6 mps 749 mmHg 81%
    21:00 +14°C° 0.1 mm 5 mps 749 mmHg 83%
    22:00 +14°C° 0.2 mm 5 mps 749 mmHg 84%
    23:00 +13°C° 0.2 mm 5 mps 749 mmHg 85%

    27 Septiembre, Viernes

    Tiempo Temperatura Precipitaciones Viento Presión Humedad
    00:00 +13°C° 0.2 mm 5 mps 749 mmHg 86%
    01:00 +13°C° 0.2 mm 5 mps 748 mmHg 86%
    02:00 +13°C° 0.2 mm 5 mps 748 mmHg 86%
    03:00 +13°C° 0.2 mm 5 mps 748 mmHg 86%
    04:00 +12°C° 0.1 mm 5 mps 748 mmHg 86%
    05:00 +12°C° 0.1 mm 5 mps 748 mmHg 86%
    06:00 +12°C° 0.1 mm 5 mps 748 mmHg 86%
    07:00 +13°C° 0.1 mm 5 mps 748 mmHg 82%
    08:00 +14°C° 0.1 mm 6 mps 748 mmHg 79%
    09:00 +14°C° 0.1 mm 7 mps 748 mmHg 76%
    10:00 +15°C° 0.3 mm 8 mps 748 mmHg 74%
    11:00 +15°C° 0.3 mm 8 mps 748 mmHg 71%
    12:00 +16°C° 0.3 mm 9 mps 748 mmHg 69%
    13:00 +16°C° 0.1 mm 9 mps 748 mmHg 69%
    14:00 +16°C° 0.1 mm 9 mps 748 mmHg 69%
    15:00 +15°C° 0.1 mm 9 mps 748 mmHg 69%
    16:00 +15°C° 0.1 mm 8 mps 748 mmHg 72%
    17:00 +13°C° 0.1 mm 8 mps 747 mmHg 74%
    18:00 +12°C° 0.1 mm 7 mps 747 mmHg 77%
    19:00 +12°C° 0 mm 7 mps 748 mmHg 77%
    20:00 +12°C° 0 mm 8 mps 748 mmHg 77%
    21:00 +12°C° 0 mm 8 mps 748 mmHg 77%
    22:00 +12°C° 0.2 mm 8 mps 748 mmHg 79%
    23:00 +12°C° 0.2 mm 8 mps 748 mmHg 80%

    28 Septiembre, Sábado

    Tiempo Temperatura Precipitaciones Viento Presión Humedad
    00:00 +12°C° 0.2 mm 8 mps 748 mmHg 81%
    01:00 +12°C° 0.2 mm 8 mps 748 mmHg 82%
    02:00 +12°C° 0.2 mm 8 mps 748 mmHg 84%
    03:00 +12°C° 0.2 mm 8 mps 748 mmHg 85%
    04:00 +12°C° 0.2 mm 8 mps 748 mmHg 86%
    05:00 +12°C° 0.2 mm 7 mps 748 mmHg 87%
    06:00 +12°C° 0.2 mm 7 mps 748 mmHg 88%
    07:00 +12°C° 0.3 mm 7 mps 748 mmHg 85%
    08:00 +14°C° 0.3 mm 7 mps 749 mmHg 82%
    09:00 +15°C° 0.3 mm 8 mps 749 mmHg 80%
    10:00 +15°C° 0.2 mm 8 mps 749 mmHg 80%
    11:00 +15°C° 0.2 mm 7 mps 750 mmHg 80%
    12:00 +15°C° 0.2 mm 7 mps 750 mmHg 80%
    13:00 +15°C° 0.4 mm 7 mps 750 mmHg 80%
    14:00 +15°C° 0.4 mm 7 mps 750 mmHg 80%
    15:00 +15°C° 0.4 mm 8 mps 750 mmHg 80%
    16:00 +14°C° 0.2 mm 7 mps 750 mmHg 82%
    17:00 +14°C° 0.2 mm 6 mps 750 mmHg 84%
    18:00 +13°C° 0.2 mm 5 mps 750 mmHg 86%
    19:00 +13°C° 0 mm 5 mps 750 mmHg 88%
    20:00 +12°C° 0 mm 5 mps 750 mmHg 89%
    21:00 +12°C° 0 mm 5 mps 750 mmHg 91%
    22:00 +12°C° 0 mm 5 mps 750 mmHg 91%
    23:00 +12°C° 0 mm 4 mps 750 mmHg 91%
    Mostrar más